Retour au catalogue

STARLINK-37843

ActifCommunicationsSSO
NORAD 69501·PAYLOAD·🇺🇸 United States

Lancé Jun 11, 2026 depuis Vandenberg Space Force Base

Loading…

Prochains Passages (prochaines 24 heures)

TLE

FraisSource: CelesTrak SupGP

Époque: Sep 15, 2026, 03:19 UTC

1 69501C 26131Z   26258.13868056 -.00050665  00000+0 -15728-2 0  2580
2 69501  97.2830 279.1533 0001282  93.3376 151.7852 15.33464068    16

Suivez STARLINK-37843 en temps réel avec AllMySat

Download on the App Store